Surface/Precipitation History
12/14/2017 14:41  to  12/15/2017 14:41
Change End Date:
Date/Time
(MST)
Sf
Temp Chem Water Layer Surface Precipitation
Sfc Pvt Sub Frz Factor Pct Dpth DpthThk IcePct Cond Salin FI Type Intens Accum Rate
12/15/2017 14:40 Ice Watch 30.2F - - - 5 - - - - 0 mhos 0 - None None - -
12/15/2017 14:38 Ice Watch 30.4F - - - 5 - - - - 0 mhos 0 - None None - -
12/15/2017 14:27 Ice Watch 30.7F - - - 5 - - - - 0 mhos 0 - None None - -
12/15/2017 14:25 Ice Watch 30.7F - - - 5 - - - - 0 mhos 0 - None None - -
12/15/2017 14:17 Ice Watch 31.1F - - - 5 - - - - 0 mhos 0 - None None - -
12/15/2017 14:10 Ice Watch 31.6F - - - 5 - - - - 0 mhos 0 - None None - -
12/15/2017 14:07 Ice Watch 31.8F - - - 5 - - - - 0 mhos 0 - None None - -
12/15/2017 13:57 Ice Watch 32.0F - - - 5 - - - - 0 mhos 0 - None None - -
12/15/2017 13:55 Trace Moisture 32.4F - - - 5 - - - - 0 mhos 1 - None None - -
12/15/2017 13:47 Trace Moisture 32.2F - - - 5 - - - - 0 mhos 1 - None None - -
12/15/2017 13:40 Ice Watch 31.6F - - - 5 - - - - 0 mhos 3 - None None - -
12/15/2017 13:37 Ice Watch 31.5F - - - 5 - - - - 0 mhos 4 - None None - -
12/15/2017 13:27 Ice Watch 31.5F - - - 5 - - - - 0 mhos 14 - None None - -
12/15/2017 13:25 Ice Watch 31.6F - - - 5 - - - - 0 mhos 18 - None None - -
12/15/2017 13:17 Trace Moisture 32.2F - - - 5 - - - - 0 mhos 30 - None None - -
Date/Time
(MST)
Sf
Temp Chem Water Layer Surface Precipitation
Sfc Pvt Sub Frz Factor Pct Dpth DpthThk IcePct Cond Salin FI Type Intens Accum Rate
12/15/2017 13:10 Trace Moisture 32.0F - - - 5 - - - - 0 mhos 42 - None None - -
12/15/2017 13:07 Ice Watch 31.8F - - - 5 - - - - 0 mhos 47 - None None - -
12/15/2017 12:57 Ice Watch 31.5F - - - 50 - - - - 1 mhos 63 - None None - -
12/15/2017 12:55 Ice Watch 31.3F - - - 60 - - - - 1 mhos 66 - None None - -
12/15/2017 12:47 Ice Watch 30.4F - - - 85 - - - - 1 mhos 76 - None None - -
12/15/2017 12:40 Ice Watch 30.2F - - - 85 - - - - 1 mhos 81 - None None - -
12/15/2017 12:37 Ice Watch 30.2F - - - 95 - - - - 1 mhos 83 - None None - -
12/15/2017 12:27 Ice Watch 30.2F - - - 95 - - - - 1 mhos 89 - None None - -
12/15/2017 12:25 Ice Watch 30.2F - - - 95 - - - - 1 mhos 91 - None None - -
12/15/2017 12:17 Ice Watch 29.1F - - - 95 - - - - 1 mhos 101 - None None - -
12/15/2017 12:10 Ice Watch 28.9F - - - 95 - - - - 1 mhos 103 - None None - -
12/15/2017 12:07 Ice Watch 28.6F - - - 95 - - - - 1 mhos 106 - None None - -
12/15/2017 11:57 Ice Watch 28.9F - - - 95 - - - - 1 mhos 103 - None None - -
12/15/2017 11:55 Ice Watch 29.1F - - - 95 - - - - 1 mhos 102 - None None - -
12/15/2017 11:47 Ice Watch 28.2F - - - 95 - - - - 1 mhos 106 - None None - -
Date/Time
(MST)
Sf
Temp Chem Water Layer Surface Precipitation
Sfc Pvt Sub Frz Factor Pct Dpth DpthThk IcePct Cond Salin FI Type Intens Accum Rate
12/15/2017 11:40 Ice Watch 28.2F - - - 95 - - - - 1 mhos 106 - None None - -
12/15/2017 11:36 Ice Watch 28.2F - - - 95 - - - - 1 mhos 106 - None None - -
12/15/2017 11:26 Ice Watch 27.9F - - - 95 - - - - 1 mhos 110 - None None - -
12/15/2017 11:25 Ice Watch 27.9F - - - 95 - - - - 1 mhos 110 - None None - -
12/15/2017 11:16 Ice Watch 27.5F - - - 95 - - - - 1 mhos 112 - None None - -
12/15/2017 11:10 Ice Watch 27.5F - - - 95 - - - - 1 mhos 111 - None None - -
12/15/2017 11:06 Ice Watch 27.5F - - - 95 - - - - 1 mhos 111 - None None - -
12/15/2017 10:56 Ice Watch 27.1F - - - 95 - - - - 1 mhos 112 - None None - -
12/15/2017 10:55 Ice Watch 27.1F - - - 95 - - - - 1 mhos 112 - None None - -
12/15/2017 10:46 Ice Watch 26.6F - - - 95 - - - - 1 mhos 115 - None None - -
12/15/2017 10:40 Ice Watch 26.6F - - - 95 - - - - 1 mhos 115 - None None - -
12/15/2017 10:36 Ice Watch 26.2F - - - 95 - - - - 1 mhos 118 - None None - -
12/15/2017 10:26 Ice Watch 25.9F - - - 95 - - - - 1 mhos 121 - None None - -
12/15/2017 10:25 Ice Watch 25.9F - - - 95 - - - - 1 mhos 122 - None None - -
12/15/2017 10:16 Ice Watch 26.2F - - - 95 - - - - 1 mhos 118 - None None - -
Date/Time
(MST)
Sf
Temp Chem Water Layer Surface Precipitation
Sfc Pvt Sub Frz Factor Pct Dpth DpthThk IcePct Cond Salin FI Type Intens Accum Rate
12/15/2017 10:10 Ice Watch 26.1F - - - 95 - - - - 1 mhos 120 - None None - -
12/15/2017 10:06 Ice Watch 25.9F - - - 95 - - - - 1 mhos 121 - None None - -
12/15/2017 09:56 Ice Watch 25.5F - - - 95 - - - - 1 mhos 124 - None None - -
12/15/2017 09:55 Ice Watch 25.7F - - - 95 - - - - 1 mhos 123 - None None - -
12/15/2017 09:46 Ice Watch 25.5F - - - 95 - - - - 1 mhos 125 - None None - -
12/15/2017 09:40 Ice Watch 25.2F - - - 95 - - - - 1 mhos 129 - None None - -
12/15/2017 09:36 Ice Watch 24.8F - - - 95 - - - - 1 mhos 132 - None None - -
12/15/2017 09:26 Ice Watch 24.3F - - - 95 - - - - 1 mhos 137 - None None - -
12/15/2017 09:25 Ice Watch 24.4F - - - 95 - - - - 1 mhos 136 - None None - -
12/15/2017 09:16 Ice Watch 23.9F - - - 95 - - - - 1 mhos 140 - None None - -
12/15/2017 09:10 Ice Watch 23.9F - - - 95 - - - - 1 mhos 141 - None None - -
12/15/2017 09:06 Ice Watch 23.9F - - - 95 - - - - 1 mhos 140 - None None - -
12/15/2017 08:55 Ice Watch 23.9F - - - 95 - - - - 1 mhos 139 - None None - -
12/15/2017 08:55 Ice Watch 23.9F - - - 95 - - - - 1 mhos 139 - None None - -
12/15/2017 08:45 Ice Watch 23.7F - - - 95 - - - - 1 mhos 141 - None None - -
Date/Time
(MST)
Sf
Temp Chem Water Layer Surface Precipitation
Sfc Pvt Sub Frz Factor Pct Dpth DpthThk IcePct Cond Salin FI Type Intens Accum Rate
12/15/2017 08:40 Ice Watch 23.2F - - - 95 - - - - 1 mhos 144 - None None - -
12/15/2017 08:35 Ice Watch 23.0F - - - 95 - - - - 1 mhos 144 - None None - -
12/15/2017 08:25 Ice Watch 23.0F - - - 95 - - - - 1 mhos 144 - None None - -
12/15/2017 08:25 Ice Watch 23.0F - - - 95 - - - - 1 mhos 144 - None None - -
12/15/2017 08:15 Ice Watch 23.0F - - - 95 - - - - 1 mhos 143 - None None - -
12/15/2017 08:10 Ice Watch 22.8F - - - 95 - - - - 1 mhos 145 - None None - -
12/15/2017 08:05 Ice Watch 22.8F - - - 95 - - - - 1 mhos 143 - None None - -
12/15/2017 07:55 Ice Watch 22.6F - - - 95 - - - - 1 mhos 143 - None None - -
12/15/2017 07:55 Ice Watch 22.6F - - - 95 - - - - 1 mhos 143 - None None - -
12/15/2017 07:45 Ice Watch 22.6F - - - 95 - - - - 1 mhos 144 - None None - -
12/15/2017 07:40 Ice Watch 22.6F - - - 95 - - - - 1 mhos 142 - None None - -
12/15/2017 07:35 Ice Watch 22.6F - - - 95 - - - - 1 mhos 143 - None None - -
12/15/2017 07:25 Ice Watch 22.6F - - - 95 - - - - 1 mhos 141 - None None - -
12/15/2017 07:25 Ice Watch 22.6F - - - 95 - - - - 1 mhos 141 - None None - -
12/15/2017 07:15 Ice Watch 22.6F - - - 95 - - - - 1 mhos 140 - None None - -
Date/Time
(MST)
Sf
Temp Chem Water Layer Surface Precipitation
Sfc Pvt Sub Frz Factor Pct Dpth DpthThk IcePct Cond Salin FI Type Intens Accum Rate
12/15/2017 07:10 Ice Watch 22.5F - - - 95 - - - - 1 mhos 141 - None None - -
12/15/2017 07:05 Ice Watch 22.6F - - - 95 - - - - 1 mhos 140 - None None - -
12/15/2017 06:55 Ice Watch 22.6F - - - 95 - - - - 1 mhos 138 - None None - -
12/15/2017 06:55 Ice Watch 22.6F - - - 95 - - - - 1 mhos 138 - None None - -
12/15/2017 06:45 Ice Watch 22.6F - - - 95 - - - - 1 mhos 136 - None None - -
12/15/2017 06:40 Ice Watch 22.6F - - - 95 - - - - 1 mhos 136 - None None - -
12/15/2017 06:35 Ice Watch 22.6F - - - 95 - - - - 1 mhos 137 - None None - -
12/15/2017 06:25 Ice Watch 22.6F - - - 95 - - - - 1 mhos 137 - None None - -
12/15/2017 06:25 Ice Watch 22.6F - - - 95 - - - - 1 mhos 137 - None None - -
12/15/2017 06:14 Ice Watch 22.5F - - - 95 - - - - 1 mhos 138 - None None - -
12/15/2017 06:10 Ice Watch 22.5F - - - 95 - - - - 1 mhos 138 - None None - -
12/15/2017 06:04 Ice Watch 22.5F - - - 95 - - - - 1 mhos 137 - None None - -
12/15/2017 05:55 Ice Watch 22.5F - - - 95 - - - - 1 mhos 137 - None None - -
12/15/2017 05:54 Ice Watch 22.5F - - - 95 - - - - 1 mhos 137 - None None - -
12/15/2017 05:44 Ice Watch 22.3F - - - 95 - - - - 1 mhos 138 - None None - -
Date/Time
(MST)
Sf
Temp Chem Water Layer Surface Precipitation
Sfc Pvt Sub Frz Factor Pct Dpth DpthThk IcePct Cond Salin FI Type Intens Accum Rate
12/15/2017 05:40 Ice Watch 22.3F - - - 95 - - - - 1 mhos 137 - None None - -
12/15/2017 05:34 Ice Watch 22.5F - - - 95 - - - - 1 mhos 136 - None None - -
12/15/2017 05:25 Ice Watch 22.5F - - - 95 - - - - 1 mhos 135 - None None - -
12/15/2017 05:24 Ice Watch 22.5F - - - 95 - - - - 1 mhos 135 - None None - -
12/15/2017 05:14 Ice Watch 22.5F - - - 95 - - - - 1 mhos 135 - None None - -
12/15/2017 05:10 Ice Watch 22.5F - - - 95 - - - - 1 mhos 135 - None None - -
12/15/2017 05:04 Ice Watch 22.3F - - - 95 - - - - 1 mhos 136 - None None - -
12/15/2017 04:55 Ice Watch 22.3F - - - 95 - - - - 1 mhos 135 - None None - -
12/15/2017 04:54 Ice Watch 22.3F - - - 95 - - - - 1 mhos 135 - None None - -
12/15/2017 04:44 Ice Watch 22.3F - - - 95 - - - - 1 mhos 135 - None None - -
12/15/2017 04:40 Ice Watch 22.3F - - - 95 - - - - 1 mhos 134 - None None - -
12/15/2017 04:34 Ice Watch 21.9F - - - 95 - - - - 1 mhos 136 - None None - -
12/15/2017 04:25 Ice Watch 21.9F - - - 95 - - - - 1 mhos 137 - None None - -
12/15/2017 04:24 Ice Watch 21.9F - - - 95 - - - - 1 mhos 137 - None None - -
12/15/2017 04:14 Ice Watch 21.7F - - - 95 - - - - 1 mhos 137 - None None - -
Date/Time
(MST)
Sf
Temp Chem Water Layer Surface Precipitation
Sfc Pvt Sub Frz Factor Pct Dpth DpthThk IcePct Cond Salin FI Type Intens Accum Rate
12/15/2017 04:10 Ice Watch 21.7F - - - 95 - - - - 1 mhos 137 - None None - -
12/15/2017 04:04 Ice Watch 21.9F - - - 95 - - - - 1 mhos 135 - None None - -
12/15/2017 03:55 Ice Watch 21.7F - - - 95 - - - - 1 mhos 135 - None None - -
12/15/2017 03:54 Ice Watch 21.7F - - - 95 - - - - 1 mhos 137 - None None - -
12/15/2017 03:44 Ice Watch 21.6F - - - 95 - - - - 1 mhos 137 - None None - -
12/15/2017 03:40 Ice Watch 21.6F - - - 95 - - - - 1 mhos 136 - None None - -
12/15/2017 03:34 Ice Watch 21.6F - - - 95 - - - - 1 mhos 137 - None None - -
12/15/2017 03:25 Ice Watch 21.6F - - - 95 - - - - 1 mhos 134 - None None - -
12/15/2017 03:23 Ice Watch 21.6F - - - 95 - - - - 1 mhos 133 - None None - -
12/15/2017 03:13 Ice Watch 21.4F - - - 95 - - - - 1 mhos 136 - None None - -
12/15/2017 03:10 Ice Watch 21.4F - - - 95 - - - - 1 mhos 135 - None None - -
12/15/2017 03:03 Ice Watch 21.6F - - - 95 - - - - 1 mhos 132 - None None - -
12/15/2017 02:55 Ice Watch 21.2F - - - 95 - - - - 1 mhos 134 - None None - -
12/15/2017 02:53 Ice Watch 21.2F - - - 95 - - - - 1 mhos 134 - None None - -
12/15/2017 02:43 Ice Watch 21.4F - - - 95 - - - - 1 mhos 131 - None None - -
Date/Time
(MST)
Sf
Temp Chem Water Layer Surface Precipitation
Sfc Pvt Sub Frz Factor Pct Dpth DpthThk IcePct Cond Salin FI Type Intens Accum Rate
12/15/2017 02:40 Ice Watch 21.4F - - - 95 - - - - 1 mhos 130 - None None - -
12/15/2017 02:33 Ice Watch 21.4F - - - 95 - - - - 1 mhos 129 - None None - -
12/15/2017 02:25 Ice Watch 21.4F - - - 95 - - - - 1 mhos 128 - None None - -
12/15/2017 02:23 Ice Watch 21.2F - - - 95 - - - - 1 mhos 128 - None None - -
12/15/2017 02:13 Ice Watch 21.2F - - - 95 - - - - 1 mhos 127 - None None - -
12/15/2017 02:10 Ice Watch 21.2F - - - 95 - - - - 1 mhos 127 - None None - -
12/15/2017 02:03 Ice Watch 21.2F - - - 95 - - - - 1 mhos 125 - None None - -
12/15/2017 01:55 Ice Watch 20.8F - - - 95 - - - - 0 mhos 125 - None None - -
12/15/2017 01:53 Ice Watch 20.8F - - - 95 - - - - 0 mhos 125 - None None - -
12/15/2017 01:43 Ice Watch 20.7F - - - 95 - - - - 0 mhos 124 - None None - -
12/15/2017 01:40 Ice Watch 20.7F - - - 95 - - - - 0 mhos 123 - None None - -
12/15/2017 01:33 Ice Watch 20.7F - - - 95 - - - - 0 mhos 123 - None None - -
12/15/2017 01:25 Ice Watch 20.5F - - - 95 - - - - 0 mhos 123 - None None - -
12/15/2017 01:23 Ice Watch 20.3F - - - 95 - - - - 0 mhos 125 - None None - -
12/15/2017 01:13 Ice Watch 20.1F - - - 95 - - - - 0 mhos 124 - None None - -
Date/Time
(MST)
Sf
Temp Chem Water Layer Surface Precipitation
Sfc Pvt Sub Frz Factor Pct Dpth DpthThk IcePct Cond Salin FI Type Intens Accum Rate
12/15/2017 01:10 Ice Watch 20.3F - - - 95 - - - - 0 mhos 122 - None None - -
12/15/2017 01:03 Ice Watch 19.9F - - - 95 - - - - 0 mhos 123 - None None - -
12/15/2017 00:55 Ice Watch 19.8F - - - 95 - - - - 0 mhos 122 - None None - -
12/15/2017 00:52 Ice Watch 19.8F - - - 95 - - - - 0 mhos 123 - None None - -
12/15/2017 00:42 Ice Watch 19.8F - - - 95 - - - - 0 mhos 120 - None None - -
12/15/2017 00:40 Ice Watch 19.8F - - - 95 - - - - 0 mhos 119 - None None - -
12/15/2017 00:32 Ice Watch 19.4F - - - 95 - - - - 0 mhos 120 - None None - -
12/15/2017 00:25 Ice Watch 18.9F - - - 95 - - - - 0 mhos 122 - None None - -
12/15/2017 00:22 Ice Watch 18.9F - - - 95 - - - - 0 mhos 122 - None None - -
12/15/2017 00:12 Ice Watch 17.8F - - - 80 - - - - 0 mhos 128 - None None - -
12/15/2017 00:10 Ice Watch 17.6F - - - 80 - - - - 0 mhos 129 - None None - -
12/15/2017 00:02 Ice Watch 16.9F - - - 80 - - - - 0 mhos 133 - None None - -
12/14/2017 23:55 Ice Watch 16.5F - - - 75 - - - - 0 mhos 136 - None None - -
12/14/2017 23:52 Ice Watch 16.3F - - - 75 - - - - 0 mhos 137 - None None - -
12/14/2017 23:42 Ice Watch 16.5F - - - 70 - - - - 0 mhos 135 - None None - -
Date/Time
(MST)
Sf
Temp Chem Water Layer Surface Precipitation
Sfc Pvt Sub Frz Factor Pct Dpth DpthThk IcePct Cond Salin FI Type Intens Accum Rate
12/14/2017 23:40 Ice Watch 16.5F - - - 65 - - - - 0 mhos 133 - None None - -
12/14/2017 23:32 Ice Watch 16.5F - - - 65 - - - - 0 mhos 134 - None None - -
12/14/2017 23:25 Ice Watch 16.5F - - - 60 - - - - 0 mhos 134 - None None - -
12/14/2017 23:22 Ice Watch 16.5F - - - 60 - - - - 0 mhos 133 - None None - -
12/14/2017 23:12 Ice Watch 16.5F - - - 55 - - - - 0 mhos 132 - None None - -
12/14/2017 23:10 Ice Watch 16.5F - - - 65 - - - - 0 mhos 132 - None None - -
12/14/2017 23:02 Ice Watch 16.5F - - - 60 - - - - 0 mhos 130 - None None - -
12/14/2017 22:55 Ice Watch 16.5F - - - 55 - - - - 0 mhos 129 - None None - -
12/14/2017 22:52 Ice Watch 16.5F - - - 50 - - - - 0 mhos 128 - None None - -
12/14/2017 22:42 Ice Watch 16.5F - - - 45 - - - - 0 mhos 128 - None None - -
12/14/2017 22:40 Ice Watch 16.7F - - - 45 - - - - 0 mhos 125 - None None - -
12/14/2017 22:32 Ice Watch 16.7F - - - 45 - - - - 0 mhos 125 - None None - -
12/14/2017 22:25 Ice Watch 17.1F - - - 60 - - - - 0 mhos 122 - None None - -
12/14/2017 22:21 Ice Watch 17.2F - - - 60 - - - - 0 mhos 120 - None None - -
12/14/2017 22:11 Ice Watch 17.2F - - - 65 - - - - 0 mhos 120 - None None - -
Date/Time
(MST)
Sf
Temp Chem Water Layer Surface Precipitation
Sfc Pvt Sub Frz Factor Pct Dpth DpthThk IcePct Cond Salin FI Type Intens Accum Rate
12/14/2017 22:10 Ice Watch 17.2F - - - 65 - - - - 0 mhos 120 - None None - -
12/14/2017 22:01 Ice Watch 17.4F - - - 65 - - - - 0 mhos 116 - None None - -
12/14/2017 21:55 Ice Watch 17.6F - - - 65 - - - - 0 mhos 115 - None None - -
12/14/2017 21:51 Ice Watch 17.8F - - - 60 - - - - 0 mhos 113 - None None - -
12/14/2017 21:41 Ice Watch 18.1F - - - 55 - - - - 0 mhos 110 - None None - -
12/14/2017 21:40 Ice Watch 18.0F - - - 80 - - - - 0 mhos 110 - None None - -
12/14/2017 21:31 Ice Watch 18.1F - - - 80 - - - - 0 mhos 107 - None None - -
12/14/2017 21:25 Ice Watch 18.3F - - - 70 - - - - 0 mhos 103 - None None - -
12/14/2017 21:21 Ice Watch 18.3F - - - 65 - - - - 0 mhos 102 - None None - -
12/14/2017 21:11 Ice Watch 18.3F - - - 60 - - - - 0 mhos 101 - None None - -
12/14/2017 21:10 Ice Watch 18.3F - - - 55 - - - - 0 mhos 99 - None None - -
12/14/2017 21:01 Ice Watch 18.3F - - - 50 - - - - 0 mhos 97 - None None - -
12/14/2017 20:55 Ice Watch 18.5F - - - 45 - - - - 0 mhos 95 - None None - -
12/14/2017 20:51 Ice Watch 18.5F - - - 50 - - - - 0 mhos 94 - None None - -
12/14/2017 20:41 Ice Watch 18.5F - - - 50 - - - - 0 mhos 92 - None None - -
Date/Time
(MST)
Sf
Temp Chem Water Layer Surface Precipitation
Sfc Pvt Sub Frz Factor Pct Dpth DpthThk IcePct Cond Salin FI Type Intens Accum Rate
12/14/2017 20:40 Ice Watch 18.7F - - - 45 - - - - 0 mhos 91 - None None - -
12/14/2017 20:31 Ice Watch 18.7F - - - 50 - - - - 0 mhos 88 - None None - -
12/14/2017 20:25 Ice Watch 18.9F - - - 45 - - - - 0 mhos 86 - None None - -
12/14/2017 20:21 Ice Watch 18.9F - - - 50 - - - - 0 mhos 85 - None None - -
12/14/2017 20:11 Ice Watch 19.4F - - - 45 - - - - 0 mhos 81 - None None - -
12/14/2017 20:10 Ice Watch 19.4F - - - 45 - - - - 0 mhos 81 - None None - -
12/14/2017 20:01 Ice Watch 19.6F - - - 45 - - - - 0 mhos 76 - None None - -
12/14/2017 19:55 Ice Watch 19.6F - - - 40 - - - - 0 mhos 73 - None None - -
12/14/2017 19:51 Ice Watch 19.6F - - - 35 - - - - 0 mhos 71 - None None - -
12/14/2017 19:40 Ice Watch 19.8F - - - 30 - - - - 0 mhos 66 - None None - -
12/14/2017 19:40 Ice Watch 19.8F - - - 30 - - - - 0 mhos 66 - None None - -
12/14/2017 19:30 Ice Watch 20.1F - - - 40 - - - - 0 mhos 60 - None None - -
12/14/2017 19:25 Ice Watch 20.1F - - - 35 - - - - 0 mhos 56 - None None - -
12/14/2017 19:20 Ice Watch 20.3F - - - 30 - - - - 0 mhos 53 - None None - -
12/14/2017 19:10 Ice Watch 20.3F - - - 35 - - - - 0 mhos 46 - None None - -
Date/Time
(MST)
Sf
Temp Chem Water Layer Surface Precipitation
Sfc Pvt Sub Frz Factor Pct Dpth DpthThk IcePct Cond Salin FI Type Intens Accum Rate
12/14/2017 19:10 Ice Watch 20.3F - - - 35 - - - - 0 mhos 46 - None None - -
12/14/2017 19:00 Ice Watch 20.3F - - - 45 - - - - 0 mhos 39 - None None - -
12/14/2017 18:55 Ice Watch 20.7F - - - 40 - - - - 0 mhos 35 - None None - -
12/14/2017 18:50 Ice Watch 20.7F - - - 45 - - - - 0 mhos 32 - None None - -
12/14/2017 18:40 Ice Watch 21.2F - - - 35 - - - - 0 mhos 22 - None None - -
12/14/2017 18:40 Ice Watch 21.2F - - - 35 - - - - 0 mhos 22 - None None - -
12/14/2017 18:30 Ice Watch 21.7F - - - 35 - - - - 0 mhos 14 - None None - -
12/14/2017 18:25 Ice Watch 21.7F - - - 30 - - - - 0 mhos 13 - None None - -
12/14/2017 18:20 Ice Watch 21.7F - - - 45 - - - - 0 mhos 12 - None None - -
12/14/2017 18:10 Ice Watch 21.9F - - - 40 - - - - 0 mhos 5 - None None - -
12/14/2017 18:10 Ice Watch 21.9F - - - 40 - - - - 0 mhos 5 - None None - -
12/14/2017 18:00 Ice Watch 22.5F - - - 30 - - - - 0 mhos 3 - None None - -
12/14/2017 17:55 Ice Watch 22.6F - - - 30 - - - - 0 mhos 2 - None None - -
12/14/2017 17:50 Ice Watch 22.8F - - - 25 - - - - 0 mhos 2 - None None - -
12/14/2017 17:40 Ice Watch 23.0F - - - 20 - - - - 0 mhos 1 - None None - -
Date/Time
(MST)
Sf
Temp Chem Water Layer Surface Precipitation
Sfc Pvt Sub Frz Factor Pct Dpth DpthThk IcePct Cond Salin FI Type Intens Accum Rate
12/14/2017 17:40 Ice Watch 23.0F - - - 20 - - - - 0 mhos 1 - None None - -
12/14/2017 17:30 Ice Watch 23.0F - - - 15 - - - - 0 mhos 1 - None None - -
12/14/2017 17:25 Ice Watch 23.0F - - - 10 - - - - 0 mhos 1 - None None - -
12/14/2017 17:20 Ice Watch 23.2F - - - 20 - - - - 0 mhos 1 - None None - -
12/14/2017 17:10 Ice Watch 23.7F - - - 25 - - - - 0 mhos 1 - None None - -
12/14/2017 17:10 Ice Watch 23.7F - - - 25 - - - - 0 mhos 1 - None None - -
12/14/2017 16:59 Ice Watch 24.4F - - - 15 - - - - 0 mhos 1 - None None - -
12/14/2017 16:55 Ice Watch 24.8F - - - 20 - - - - 0 mhos 1 - None None - -
12/14/2017 16:49 Ice Watch 24.8F - - - 5 - - - - 0 mhos 0 - None None - -
12/14/2017 16:40 Ice Watch 25.7F - - - 5 - - - - 0 mhos 0 - None None - -
12/14/2017 16:39 Ice Watch 25.7F - - - 5 - - - - 0 mhos 0 - None None - -
12/14/2017 16:29 Ice Watch 26.2F - - - 5 - - - - 0 mhos 0 - None None - -
12/14/2017 16:25 Ice Watch 27.0F - - - 5 - - - - 0 mhos 0 - None None - -
12/14/2017 16:19 Ice Watch 28.0F - - - 5 - - - - 0 mhos 0 - None None - -
12/14/2017 16:10 Ice Watch 29.5F - - - 5 - - - - 0 mhos 0 - None None - -
Date/Time
(MST)
Sf
Temp Chem Water Layer Surface Precipitation
Sfc Pvt Sub Frz Factor Pct Dpth DpthThk IcePct Cond Salin FI Type Intens Accum Rate
12/14/2017 16:09 Ice Watch 29.7F - - - 5 - - - - 0 mhos 0 - None None - -
12/14/2017 15:59 Dry 31.5F - - - - - - - - 0 mhos 0 - None None - -
12/14/2017 15:55 Dry 32.0F - - - - - - - - 0 mhos 0 - None None - -
12/14/2017 15:49 Dry 32.9F - - - - - - - - 0 mhos 0 - None None - -
12/14/2017 15:40 Dry 34.2F - - - - - - - - 0 mhos 0 - None None - -
12/14/2017 15:39 Dry 34.3F - - - - - - - - 0 mhos 0 - None None - -
12/14/2017 15:29 Dry 35.6F - - - - - - - - 0 mhos 0 - None None - -
12/14/2017 15:25 Dry 36.1F - - - - - - - - 0 mhos 0 - None None - -
12/14/2017 15:19 Dry 36.9F - - - - - - - - 0 mhos 0 - None None - -
12/14/2017 15:10 Dry 37.6F - - - - - - - - 0 mhos 0 - None None - -
12/14/2017 15:09 Dry 37.6F - - - - - - - - 0 mhos 0 - None None - -
12/14/2017 14:59 Dry 38.5F - - - - - - - - 0 mhos 0 - None None - -
12/14/2017 14:55 Dry 38.7F - - - - - - - - 0 mhos 0 - None None - -
12/14/2017 14:49 Dry 39.2F - - - - - - - - 0 mhos 0 - None None - -
Change End Date:

Copyright © 1998-2015 Vaisala, Inc.
All Rights Reserved
Send comments about the data to:
SCAN Web ® is a registered trademark of Vaisala, Inc.
SCAN Web Version 6.0